SL-12 DEB, 41699

Orbit data source: Space-Track

SL-12 DEB, 41699 is space debris in HEO originally from a launch on Mon, 01 Mar 2010 UTC launched from the Tyuratam Missile And Space Complex (TTMTR). Debris objects in space refer to the collection of defunct objects orbiting the Earth. Examples of debris include non-operational satellites, rocket bodies, and fragments generated from explosions, collisions, or faulty payload assembly.

Loading next visibility...
Identifier
41699, 2010-007R
Orbit
HEO
Country
Flag of CISCIS
Related business
Manufacturer
RKKE
Mission
Spacecraft
Bus & Motor
Unknown
Mass
Unknown
Launch date (UTC)
2010-03-01 (16 years ago)
Launch vehicle
Unknown
Launch site
Tyuratam Missile And Space Complex (TTMTR)
Object type
Payload
Rocket body
Debris
Shape & HBR
Unknown shape, 0.6 m
Radar Cross Section
Medium (>0.1 m² and <1 m²)

Expand to show TLE details & history
Last TLE update: 18 hours ago

TLE from 18 hours ago
0 SL-12 DEB
1 41699U 10007R   26033.69508232  .00000119  00000-0  82813-3 0  9992
2 41699  64.8371 187.5652 5542885 312.9791  12.1438  4.37308915181945
Epoch: 2026-02-02T16:40Z
TLE epoch observation values (Epoch: 2026-02-02T16:40:55.112Z)
Latitude
-0.00001°
Longitude
164.45323°
Altitude
1,566.577 km
Speed
8.668 km/s
True Right ascension
12h 30m 16s
True Declination
0° 00' 00"
Sunlit
Object was in partial shadow at epoch
Visualization orbit readout
Latitude
Unknown
Longitude
Unknown
Altitude
Unknown
Speed
Unknown
Apparent Right ascension
Unknown
Apparent Declination
Unknown
Sunlit
N/A
Visualization observer readout
Local Sidereal Time
13:01:58
Azimuth
Unknown
Elevation
Unknown
Doppler factor
Unknown
Orbital elements
Apogee altitude
18,171.464 km
Perigee altitude
661.765 km
Semi-major axis
15,794.752 km
Eccentricity
0.55429
Inclination
64.8371°
RAAN
187.5652°
Arg. of periapsis
312.9791°
True anomaly
46.86127°
Mean anomaly
12.1438°
Eccentric anomaly
26.13098°
Mean motion
1.09339 °/min
Orbital period
329.25 mins
BSTAR
0.00082813
Loading maneuver chart data...
Computing Atmospheric mass density...
Loading historical data...
Loading historical data...
Loading historical data...
Loading historical data...
Loading historical data...
Loading historical data...
Loading historical data...

Documentation

Showing up to 5 results
|